CAPE
135 337 1136 714 441 275 36 0 0 0 0 0 0 0 0 0 0 0 0 0 0 0 0 0 0 0 0 0 0 0 0 0 0 0 15 189 426 939 898 1065 1503 1096 1554
101 330 977 644 407 217 94 37 38 20 0 0 0 0 0 0 0 0 0 0 0 0 0 0 0 0 0 0 0 0 0 0 0 0 0 0 13 848 935 916 1463 1387 1680
42 189 388 666 443 382 276 155 98 65 41 9 0 0 0 0 0 0 0 0 0 0 0 0 0 0 0 0 0 0 0 0 0 0 0 0 0 28 1189 982 1085 1370 1457
19 91 135 720 581 485 325 228 140 108 84 63 0 0 0 0 0 0 0 0 0 0 0 0 0 0 0 0 0 0 0 0 0 0 0 0 0 0 1374 1180 998 1017 1256
0 33 82 812 637 579 380 269 206 175 185 86 0 0 0 0 0 0 0 0 0 0 2 32 27 22 1 4 28 35 2 0 1 0 0 0 0 0 679 1266 1172 976 1004
80 2 262 826 725 634 509 398 361 407 323 200 113 55 9 20 20 23 23 0 0 26 72 164 225 232 196 159 462 488 252 87 57 1 0 0 0 161 1491 1334 1144 1067 1099
191 13 467 946 1000 980 820 663 572 556 511 482 437 253 244 315 346 209 107 88 138 246 371 435 388 307 346 349 366 587 452 159 76 39 5 0 0 1340 1656 1236 1075 973 825
162 50 460 967 1238 1167 1057 925 748 718 649 676 661 653 636 659 641 579 331 251 382 584 673 387 361 204 219 309 396 540 454 258 69 0 9 1 118 1745 1456 1260 1228 918 895
95 87 410 512 942 1476 1229 1070 961 827 782 702 697 796 879 876 816 837 853 740 700 990 703 532 285 150 149 186 306 469 465 378 131 36 13 0 288 1408 1109 1021 1215 1128 902
53 353 338 406 439 800 820 1394 1173 1023 968 866 858 920 1015 1022 1039 1164 1092 1231 1069 1032 923 577 235 211 137 139 283 506 465 477 226 124 32 0 413 1178 1065 1100 1087 1204 1056
7 628 494 404 427 488 575 989 1290 1341 1162 1153 1079 1093 1035 644 755 860 1062 1154 1368 1388 1155 697 381 326 210 163 94 283 561 169 143 125 39 64 663 998 764 667 1129 1194 1129
0 592 707 561 511 535 648 641 803 747 695 807 762 742 756 576 296 406 681 1492 1669 1702 1330 954 772 410 254 7 0 52 114 112 52 6 4 400 899 853 707 563 839 1173 1201
0 69 855 713 606 595 659 563 724 692 723 825 674 522 715 505 336 575 344 940 1085 1213 584 695 485 320 40 0 0 0 17 104 55 0 0 501 1120 961 715 513 616 922 1082
0 0 277 929 984 758 624 474 797 763 724 729 728 357 563 540 658 602 259 283 370 377 208 64 208 129 5 14 23 16 64 151 15 5 8 730 1033 987 685 497 387 689 1054
0 0 3 242 1153 900 515 403 773 802 788 646 568 497 503 790 778 373 155 123 199 126 265 206 190 165 16 1 6 33 84 38 35 52 40 859 1240 849 762 540 422 394 794
0 0 0 380 638 768 569 448 890 963 926 665 641 652 894 896 579 419 437 461 343 231 0 48 28 2 0 0 0 17 43 43 54 74 43 75 889 745 706 593 446 323 523
21 0 0 9 499 806 644 563 925 1043 897 785 706 922 1189 752 485 513 370 452 437 309 223 87 68 22 19 0 0 9 5 37 39 63 98 320 165 685 858 903 763 595 483
10 0 0 1454 1024 1127 690 1201 1086 915 822 597 456 810 750 447 390 474 480 392 339 265 84 77 44 40 30 16 0 0 3 33 18 46 87 201 49 57 641 649 860 1029 927
14 0 110 813 1280 1438 1375 1115 1325 1179 492 336 144 239 566 400 573 549 561 440 348 307 209 170 49 49 26 41 17 0 0 20 33 81 19 0 43 92 76 609 673 1019 1185
90 401 346 1174 1566 1641 1601 1479 1277 706 428 288 222 198 399 547 665 598 524 434 410 215 120 118 88 13 15 28 37 56 31 37 32 41 28 48 45 38 60 60 258 466 1164
119 378 953 1689 1597 1798 1607 1517 1162 678 407 399 195 248 515 547 709 694 589 449 436 295 169 132 68 43 9 8 14 11 17 7 0 19 8 29 49 11 0 394 184 272 605
282 918 1167 1658 1542 1446 1338 1066 771 429 229 153 231 263 409 562 436 424 354 375 115 256 177 73 72 5 0 0 10 25 14 10 2 23 24 36 8 15 60 305 265 293 434
544 706 815 1181 1456 1348 1275 799 482 221 151 228 226 345 442 394 396 368 351 159 309 246 70 16 41 41 10 5 0 0 31 28 6 0 30 56 233 192 57 373 407 467 383
593 588 964 1458 1305 926 731 672 595 237 350 170 144 246 562 369 536 491 408 229 121 69 84 66 94 107 83 80 30 43 17 1 0 0 4 75 68 60 46 205 367 117 58
482 794 1183 1181 943 946 492 520 234 103 177 226 276 357 445 345 348 353 287 213 208 64 24 29 54 69 8 22 27 13 16 1 13 0 0 22 11 12 62 109 31 27 38
709 920 945 924 820 769 438 474 136 152 260 102 272 113 36 178 272 369 315 169 119 54 51 9 11 20 57 117 152 137 77 0 0 0 0 0 15 57 19 80 128 1 2
CIN
-667 -638 -459 -489 -498 -506 -522 -0 -0 -0 -0 -0 -0 -0 -0 -0 -0 -0 -0 -0 -0 -0 -0 -0 -0 -0 -0 -0 -0 -0 -0 -0 -0 -0 -133 -75 -52 -16 -23 -23 -5 -7 -0
-742 -657 -495 -501 -505 -508 -488 -475 -415 -455 -0 -0 -0 -0 -0 -0 -0 -0 -0 -0 -0 -0 -0 -0 -0 -0 -0 -0 -0 -0 -0 -0 -0 -0 -0 -0 -16 -13 -17 -24 -4 -3 -0
-798 -752 -620 -501 -493 -472 -452 -440 -421 -417 -412 -271 -0 -0 -0 -0 -0 -0 -0 -0 -0 -0 -0 -0 -0 -0 -0 -0 -0 -0 -0 -0 -0 -0 -0 -0 -0 -32 -13 -22 -13 -4 -2
-853 -821 -730 -504 -478 -450 -442 -430 -422 -396 -365 -348 -0 -0 -0 -0 -0 -0 -0 -0 -0 -0 -0 -0 -0 -0 -0 -0 -0 -0 -0 -0 -0 -0 -0 -0 -0 -0 -3 -15 -10 -15 -5
-0 -851 -794 -487 -471 -433 -429 -415 -397 -372 -338 -347 -0 -0 -0 -0 -0 -0 -0 -0 -0 -0 -0 -82 -75 -123 -0 -0 -88 -96 -54 -0 -166 -0 -0 -0 -0 -0 -24 -14 -7 -10 -12
-744 -220 -645 -459 -440 -412 -396 -391 -370 -326 -330 -328 -320 -343 -370 -345 -308 -274 -241 -0 -0 -119 -54 -53 -39 -43 -26 -12 -0 -0 -16 -57 -75 -159 -0 -0 -0 -4 -11 -11 -7 -5 -9
-659 -769 -629 -475 -400 -346 -326 -331 -329 -310 -321 -299 -272 -301 -274 -225 -188 -205 -212 -204 -148 -68 -9 -0 -0 -5 -6 -10 -7 -0 -3 -24 -59 -118 -128 -0 -0 -10 -12 -17 -17 -12 -12
-462 -683 -686 -563 -453 -378 -328 -302 -306 -291 -295 -293 -274 -242 -210 -180 -150 -124 -156 -162 -90 -20 -4 -10 -3 -22 -38 -17 -1 -2 -2 -4 -83 -0 -71 -96 -23 -10 -24 -30 -18 -22 -12
-345 -506 -636 -629 -589 -432 -399 -362 -335 -323 -281 -268 -268 -230 -194 -159 -151 -104 -60 -74 -49 -2 -14 -16 -51 -112 -114 -98 -14 -0 -0 -0 -95 -203 -179 -0 -20 -8 -18 -40 -28 -20 -17
-311 -443 -614 -653 -613 -560 -508 -384 -362 -326 -293 -259 -214 -177 -159 -134 -122 -81 -47 -12 -22 -27 -6 -27 -94 -110 -146 -151 -41 -0 -0 -0 -39 -126 -223 -0 -22 -4 -12 -36 -29 -21 -21
-158 -423 -539 -629 -655 -652 -585 -448 -373 -300 -266 -227 -192 -145 -141 -233 -200 -162 -105 -57 -16 -6 -10 -36 -60 -55 -95 -116 -170 -38 -0 -81 -89 -116 -267 -147 -17 -2 -7 -25 -23 -11 -14
-0 -417 -485 -536 -605 -619 -533 -535 -455 -440 -403 -345 -302 -261 -229 -266 -369 -286 -205 -42 -18 -4 -5 -17 -17 -49 -74 -192 -0 -227 -128 -117 -191 -123 -149 -43 -8 -3 -11 -31 -25 -11 -12
-0 -308 -408 -447 -531 -581 -502 -586 -490 -448 -431 -381 -383 -381 -264 -285 -323 -212 -278 -95 -86 -44 -131 -63 -86 -96 -248 -0 -0 -0 -218 -126 -155 -0 -0 -23 -5 -4 -14 -27 -36 -17 -9
-0 -0 -322 -382 -452 -496 -465 -574 -522 -472 -470 -440 -401 -501 -353 -295 -217 -180 -280 -285 -272 -236 -258 -284 -189 -217 -191 -302 -246 -99 -169 -100 -101 -91 -15 -19 -10 -4 -12 -22 -33 -29 -2
-0 -0 -146 -570 -394 -406 -400 -474 -482 -468 -484 -498 -481 -458 -393 -238 -177 -273 -311 -295 -312 -304 -181 -164 -117 -118 -241 -188 -48 -120 -99 -173 -45 -141 -119 -16 -15 -12 -8 -16 -31 -33 -5
-0 -0 -0 -404 -447 -403 -398 -412 -385 -392 -408 -459 -432 -420 -288 -209 -220 -236 -191 -145 -216 -219 -0 -140 -141 -186 -0 -0 -0 -55 -103 -143 -148 -133 -69 -85 -15 -17 -13 -14 -24 -25 -8
-137 -0 -0 -92 -526 -445 -359 -417 -320 -299 -325 -353 -360 -346 -238 -261 -256 -186 -182 -120 -133 -168 -150 -147 -79 -78 -91 -0 -0 -60 -66 -61 -46 -82 -103 -114 -50 -26 -22 -19 -13 -9 -6
-172 -0 -0 -302 -439 -444 -385 -318 -278 -286 -298 -363 -406 -299 -273 -318 -262 -170 -136 -124 -114 -149 -162 -120 -88 -64 -61 -53 -0 -0 -69 -84 -69 -77 -107 -106 -88 -95 -41 -30 -8 -0 -0
-154 -0 -275 -394 -434 -418 -383 -349 -238 -230 -339 -359 -403 -369 -247 -240 -154 -147 -115 -100 -101 -95 -83 -71 -29 -55 -58 -47 -53 -0 -0 -60 -64 -91 -58 -0 -83 -132 -143 -69 -39 -2 -0
-223 -324 -291 -400 -435 -393 -354 -307 -258 -348 -403 -385 -372 -349 -223 -165 -123 -129 -105 -96 -85 -91 -80 -64 -48 -89 -76 -62 -36 -30 -51 -66 -68 -69 -98 -84 -85 -69 -99 -171 -91 -41 -1
-345 -280 -298 -356 -404 -330 -299 -283 -281 -337 -380 -318 -327 -248 -178 -147 -84 -76 -77 -84 -76 -73 -69 -62 -66 -55 -60 -60 -37 -55 -68 -81 -0 -91 -99 -80 -77 -82 -0 -83 -132 -106 -38
-341 -374 -389 -387 -354 -345 -330 -334 -341 -394 -403 -366 -297 -217 -151 -97 -98 -78 -83 -87 -114 -64 -73 -73 -56 -53 -0 -0 -32 -33 -46 -89 -28 -91 -96 -71 -102 -77 -85 -88 -98 -93 -62
-407 -454 -430 -377 -299 -322 -282 -339 -368 -431 -416 -291 -244 -184 -145 -115 -87 -83 -85 -97 -70 -54 -86 -62 -53 -44 -12 -34 -0 -0 -34 -52 -102 -12 -72 -94 -71 -50 -96 -75 -62 -88 -94
-460 -513 -444 -328 -291 -352 -348 -312 -282 -334 -245 -257 -222 -205 -104 -93 -70 -86 -87 -87 -79 -94 -75 -70 -54 -45 -38 -35 -66 -71 -84 -76 -0 -0 -106 -72 -92 -55 -92 -89 -73 -113 -148
-532 -499 -403 -349 -355 -325 -377 -312 -355 -291 -225 -167 -168 -121 -100 -101 -100 -80 -67 -64 -59 -91 -91 -75 -66 -61 -92 -76 -74 -76 -77 -19 -103 -0 -0 -46 -140 -107 -109 -112 -134 -125 -121
-477 -446 -422 -380 -351 -329 -360 -278 -302 -225 -176 -203 -149 -174 -180 -106 -82 -48 -47 -67 -64 -74 -56 -87 -85 -72 -46 -47 -39 -38 -57 -27 -0 -35 -0 -0 -43 -91 -134 -98 -71 -77 -154
Wind_Speed
7 14 20 19 19 18 18 18 17 16 15 14 13 12 12 11 10 10 9 9 8 7 5 4 3 3 3 2 2 2 3 5 7 10 9 8 8 5 3 6 9 10 10
16 15 21 19 19 19 19 18 17 17 15 14 13 13 12 11 10 9 8 7 6 6 4 2 1 1 1 1 1 2 3 4 6 8 10 10 10 7 5 3 6 10 12
17 15 17 20 20 19 18 18 17 17 16 15 13 12 12 11 10 9 8 7 6 4 4 3 2 1 1 2 2 3 3 3 5 7 9 5 6 12 8 7 6 9 11
18 14 14 20 19 19 19 18 17 17 15 14 13 12 11 10 9 8 8 7 7 6 5 4 4 4 4 4 4 4 4 5 5 6 5 6 7 12 10 10 8 10 10
15 13 13 20 19 19 19 18 17 16 16 15 15 14 13 12 10 9 8 8 7 7 7 6 6 6 6 7 7 6 5 5 6 6 6 6 6 10 14 9 6 9 11
15 14 14 19 18 18 19 18 18 17 17 17 16 15 14 12 11 10 9 9 9 8 7 8 9 8 8 8 7 8 8 7 6 5 6 7 7 9 9 6 4 6 11
16 16 18 22 19 18 18 19 19 19 19 19 18 17 16 14 13 12 11 10 9 9 9 9 6 5 6 7 9 9 6 8 5 5 6 6 6 9 10 9 7 5 8
19 18 19 27 25 22 20 19 19 19 19 20 20 19 18 17 15 13 13 12 11 11 10 8 7 7 6 7 7 8 9 9 6 4 6 5 5 11 14 13 9 6 6
17 17 16 18 24 27 25 23 22 21 20 19 19 19 18 17 15 14 14 14 13 11 11 10 9 9 9 9 9 8 10 11 6 4 7 4 7 11 12 13 11 8 6
15 16 15 15 17 17 18 26 24 22 21 19 18 17 17 16 15 15 15 14 14 13 13 12 12 11 10 10 10 10 11 12 5 5 5 4 10 12 14 15 12 11 8
10 14 14 17 17 17 15 17 23 24 21 19 18 17 13 6 8 12 14 17 15 16 15 13 14 13 12 12 11 12 14 3 5 4 4 10 10 9 10 10 11 9 9
4 15 15 15 15 14 13 15 14 14 12 11 10 9 6 7 6 10 11 20 18 18 15 15 15 14 12 4 4 12 4 5 5 4 4 14 12 13 13 11 11 10 9
8 8 15 15 15 17 13 11 8 7 8 8 11 8 8 6 6 6 3 3 7 12 6 8 7 5 5 5 4 4 8 7 5 5 8 14 14 16 15 14 13 10 9
8 6 17 17 16 16 10 11 11 9 9 8 10 11 8 6 5 4 3 4 4 4 6 5 4 6 6 7 8 6 7 7 5 3 6 18 15 15 16 15 14 13 10
8 6 8 13 16 15 12 10 11 11 10 11 10 12 10 6 5 5 5 4 4 4 5 4 4 4 5 6 5 4 5 5 5 3 2 7 12 15 15 15 14 14 12
8 9 6 12 16 16 14 13 11 10 10 10 9 10 12 7 5 5 4 4 5 5 5 4 4 4 3 2 5 5 5 4 4 5 3 3 9 11 12 14 14 15 14
7 8 9 9 11 15 15 10 10 10 9 10 9 11 12 9 7 6 4 3 4 3 4 3 3 2 2 3 5 5 5 5 4 3 5 4 6 14 14 14 14 15 15
7 9 9 8 11 11 11 7 7 8 6 7 6 8 12 8 8 5 3 3 4 3 3 2 2 3 3 4 3 5 4 4 5 5 4 4 5 5 11 16 14 14 15
10 7 7 9 10 10 8 7 6 7 5 5 5 6 9 8 7 6 4 4 5 4 3 3 3 3 3 3 3 4 3 2 3 4 6 6 7 6 4 12 15 15 15
6 6 7 7 9 9 7 6 5 5 5 5 5 5 7 7 8 6 4 4 5 4 3 3 5 4 3 4 3 4 3 4 3 4 5 4 5 6 6 6 7 8 14
6 8 8 10 8 9 7 6 4 4 4 3 4 7 8 7 7 6 5 5 4 4 5 5 4 5 3 2 2 1 2 4 5 4 3 4 5 6 5 4 6 5 7
7 8 8 9 9 6 6 4 4 5 3 4 3 6 7 8 7 6 6 5 5 4 5 4 4 1 2 3 3 1 2 3 2 4 3 4 6 5 5 6 6 6 5
10 9 8 9 9 8 8 5 4 4 4 3 1 2 4 7 6 6 6 4 5 3 2 3 5 6 4 3 5 4 1 3 0 1 5 3 6 4 2 6 6 4 5
8 8 9 9 9 8 8 6 5 5 4 3 4 3 4 6 5 6 4 4 4 3 4 4 5 4 4 4 1 4 3 3 0 1 2 1 3 3 2 3 4 4 5
10 9 9 9 8 8 7 7 6 5 3 3 4 7 5 4 5 5 5 4 4 4 4 4 4 5 4 4 3 2 4 3 1 1 2 1 2 2 1 4 5 4 5
10 11 10 9 6 8 8 8 8 7 5 5 5 5 3 2 2 3 5 4 5 4 4 3 5 5 5 4 4 4 4 5 5 3 2 2 4 1 1 4 5 4 4
Wind_Direction
154 158 161 157 154 150 149 148 146 144 141 141 139 136 133 130 127 126 125 125 125 119 108 100 100 106 97 63 39 13 356 343 342 340 345 348 331 316 201 147 128 119 128
141 161 163 162 159 156 156 153 152 147 148 151 149 147 146 142 140 139 137 137 137 134 130 122 107 83 54 14 354 336 320 336 334 329 327 327 316 285 242 180 138 139 141
144 160 165 166 165 162 160 157 157 154 156 156 154 152 152 151 154 152 158 164 164 168 165 175 203 255 279 272 274 289 291 298 314 316 313 315 291 290 232 212 167 152 156
147 158 166 171 169 167 162 163 163 160 158 156 160 158 159 163 165 166 174 189 186 196 212 221 228 236 250 257 257 250 272 281 282 293 305 289 292 291 246 215 192 173 165
144 157 168 172 172 172 167 168 167 164 160 165 168 169 172 176 177 183 189 205 210 214 223 232 245 248 249 238 245 246 251 264 285 289 281 275 279 287 268 183 187 184 171
146 155 166 176 177 177 174 171 171 171 167 173 177 177 182 186 188 193 206 218 223 230 242 249 252 253 256 259 261 241 233 247 270 279 272 274 273 261 113 134 173 180 175
156 164 163 176 181 182 183 178 178 180 176 181 183 184 188 191 194 199 215 225 232 237 244 257 271 275 266 268 266 252 235 236 251 268 277 278 299 184 133 144 149 171 197
164 168 169 175 178 181 186 187 185 187 189 188 185 188 190 194 195 199 211 224 234 244 243 248 251 260 262 265 265 254 227 228 247 263 272 274 249 160 150 143 146 156 196
167 163 170 180 180 180 183 187 188 189 195 199 194 193 193 197 193 199 212 219 227 237 231 238 244 245 251 255 254 244 224 231 230 245 272 277 254 189 169 145 149 158 188
164 170 171 173 181 185 188 185 187 192 193 197 203 204 200 200 199 201 213 221 223 217 223 230 237 243 248 245 246 242 232 231 231 238 252 263 276 209 178 157 155 160 173
166 170 173 178 182 185 188 191 186 190 194 196 203 207 205 199 205 209 212 221 217 219 214 221 232 240 250 250 244 241 237 211 218 233 247 251 252 179 178 157 145 163 171
255 183 179 178 180 176 185 188 191 188 189 189 195 199 195 203 215 217 218 224 207 217 205 218 229 237 247 228 239 243 226 213 217 224 238 245 239 180 183 161 162 166 174
257 155 183 182 178 179 188 180 182 187 182 183 186 178 193 204 221 226 220 223 201 205 189 216 231 228 211 223 226 230 211 208 222 228 238 250 213 193 191 179 172 169 176
252 244 183 184 178 189 181 179 176 180 184 183 192 181 186 200 212 227 210 197 172 178 195 205 208 206 217 223 235 223 197 203 201 219 221 235 216 196 193 186 180 174 179
249 231 164 164 182 185 187 180 177 184 184 181 181 190 191 182 192 200 220 183 183 171 192 209 204 196 212 234 243 232 205 216 231 198 197 280 188 186 194 194 187 183 188
215 216 201 173 182 181 187 178 182 179 178 177 182 188 184 177 179 187 206 221 178 184 183 166 174 176 186 225 262 252 237 228 259 196 200 205 185 187 200 206 196 195 195
197 204 220 202 174 180 178 164 175 179 172 182 187 180 172 163 173 171 192 218 208 189 164 153 167 176 201 233 247 269 260 235 237 213 187 187 181 191 204 211 207 199 198
190 205 225 160 169 168 172 158 155 171 156 167 148 154 158 158 163 171 193 206 205 165 157 161 189 219 221 227 223 265 275 208 227 222 194 180 185 199 213 206 205 205 202
208 222 189 158 162 159 148 145 138 144 129 138 130 138 155 173 162 162 184 205 150 148 175 179 222 193 215 234 233 247 250 252 230 220 209 200 190 205 191 215 200 209 209
197 170 147 143 145 139 127 117 106 108 123 121 137 151 168 161 167 171 192 211 163 154 207 186 207 221 191 216 238 228 227 227 236 247 230 226 203 206 205 187 199 208 206
121 117 138 135 148 139 147 139 123 140 141 120 144 156 166 164 173 184 175 167 168 194 206 198 184 204 245 230 218 277 279 247 254 244 261 245 245 235 197 172 183 180 196
134 123 122 125 141 127 132 118 127 135 149 143 157 180 158 161 165 164 172 175 198 199 221 206 171 148 217 190 147 92 327 319 275 244 233 235 220 231 172 169 176 174 183
142 139 134 129 133 122 130 116 101 84 56 73 134 163 171 149 140 144 157 186 197 197 221 192 179 184 200 212 185 148 162 238 155 259 232 244 188 201 146 179 173 159 166
149 134 121 124 124 125 132 114 127 141 138 185 159 148 134 137 145 149 153 160 176 187 196 210 196 188 160 203 202 228 233 112 187 344 15 206 167 202 216 136 135 127 115
136 117 120 118 115 118 126 128 129 117 137 126 119 109 113 103 127 156 163 179 187 189 206 203 187 193 184 171 180 158 215 49 152 207 168 225 27 256 108 132 132 126 121
117 118 121 119 124 115 123 127 124 109 88 102 101 113 127 130 163 180 178 162 186 190 208 214 205 195 194 200 197 201 180 160 211 186 158 218 152 325 98 122 120 100 102